Kezdőlap
METAR-TAF:

METAR-TAF

Repülőterek :

Taylor County Airport

Medford, Wisconsin, Amerikai Egyesült Államok

földrajzi szélesség: 45-06-04N, földrajzi hosszúság: 090-18-12W, magasság: 448 m

Jelenlegi meteorológiai megfigyelések

A jelentés 27 perccel ezelõtt készült, 02:35 UTC
Dél-délnyugati szél 13 kt
Hőmérséklet -13°C
Páratartalom 72%
Légköri nyomás 1012 hPa
Látótávolság: 16.1 km
Derült ég

METAR: KMDZ 270235Z AUTO 20013KT 10SM CLR M13/M17 A2988 RMK AO2 T11301170 PWINO

Idő: 21:02 (03:02 UTC)


TAF: hiányzik

Meteorológiai megfigyelések és előrejelzések több, mint 4000 repülőtéren (METAR és TAF jelentéseket).

A térképen piros és sárga pontok jelzik az elérhető meteorológiai állomásokat.

Mozgassa az egeret a pont fölött, hogy megjelenjen az állomás neve.

Azután kattintson az időjárási megfigyelések és előrejelzések megtekintéséhez.

A térkép megváltoztatása: kattintson a fekete keresztel jelölt zöld gombra ráközelítéshez, a vonallal jelölt zöld gombra távolításhoz, vagy a zöld nyilakra a szomszédos térképek eléréséhez.


METAR-TAF: